OneWeb SL0061

operational
NORAD ID: 45428 Int'l Des: 2020-020 Owner: ONEWEB Country: UK Constellation: oneweb
LEOCIRCULARPOLARONEWEB_TYPE

About OneWeb SL0061

Description loading...

Live Position

Loading 3D Globe...

Upcoming Passes

Altitude History

Altitude vs Time

uPlot chart will show altitude changes over time

Two-Line Element Set

1 45428U 20020E 25348.75927784 -.00000709 00000-0 -20354-2 0 9992
2 45428 87.8865 57.7728 0001770 102.4358 257.6968 13.11414750278457
Epoch: Dec 14, 2025 • Age: 23 hours

Current Status

Altitude 1220.7 km
Velocity 7.24 km/s
Sub-Earth Point -1.90°S, 103.76°W
Launch Date Mar 21, 2020
Age 5.7 years
Type internet

Technical Details

Classification Payload
Mass 148.00 kg
Dry Mass 140.00 kg
Total Mass 148.00 kg
Length 1.30 m
Diameter 1.00 m
Span 5.00 m
Shape Trapezoid+2 pan
Manufacturer ONEWUS
Bus Type ARROW
Phase Status In Orbit
Owner/State ONEWEB/UK

Large Constellations

Loading constellations...